GFSSW_500_spd_081.txt.gz
Wind_Speed
16 16 16 16 16 16 16 17 16 15 13 13 12 11 11 10 10 9 9 10 11 10 13 18 17 16 12 10 13 19 27 23 18 21 20 7 15 18 9 16 22 24 24 23 25
21 22 22 22 22 21 22 22 22 21 20 18 17 16 16 15 13 12 13 10 10 12 12 15 18 16 18 16 11 21 19 12 9 13 20 18 17 15 19 20 18 23 24 27 25
28 27 27 27 27 27 27 27 27 27 26 24 22 22 20 20 15 18 15 14 13 12 13 14 18 19 19 16 7 12 4 8 1 15 19 15 14 18 18 20 14 21 23 24 23
32 33 33 33 33 33 32 32 32 32 32 32 29 26 26 24 21 20 18 17 16 16 13 16 17 22 22 20 14 5 7 8 9 14 14 11 20 19 21 17 15 17 20 21 22
29 30 31 33 35 37 38 38 39 38 38 38 36 35 31 29 27 24 22 20 20 19 17 16 17 19 24 28 16 17 19 15 17 19 8 15 11 12 20 25 16 16 20 21 20
24 26 27 28 30 32 35 37 39 42 46 45 43 42 40 35 33 26 29 24 22 21 21 19 18 20 22 23 14 21 27 23 24 15 14 10 20 15 25 30 8 16 23 25 22
16 18 20 19 20 21 24 28 33 40 44 47 50 51 48 38 42 32 33 30 25 23 23 22 22 24 20 20 18 17 17 10 10 7 5 4 20 15 20 27 18 7 13 20 24
21 23 25 26 28 31 33 36 35 33 38 45 51 54 56 45 50 44 36 32 32 27 26 27 26 23 22 19 20 18 13 11 8 5 9 20 22 16 17 21 24 7 16 16 26
22 23 24 25 27 31 36 39 39 38 39 41 47 54 55 48 54 44 46 42 31 32 29 29 29 25 25 23 22 16 9 11 9 6 13 21 24 14 17 29 19 20 18 20 25
24 26 28 29 30 32 35 40 42 45 45 47 49 52 51 46 44 42 44 43 43 34 32 29 29 28 28 26 21 17 15 16 8 7 20 17 13 11 20 24 18 22 29 30 25
26 29 31 33 34 37 36 42 45 44 46 49 52 54 51 50 45 51 45 42 43 45 35 25 31 31 26 24 21 19 21 19 16 15 16 15 13 22 25 28 8 24 29 29 31
28 32 34 36 38 42 44 48 45 46 47 51 51 55 48 47 49 53 50 43 41 43 37 32 34 25 24 25 23 13 11 20 24 25 28 29 29 29 28 24 14 18 29 33 29
33 35 37 40 42 44 49 49 49 53 56 49 43 43 42 48 47 48 48 48 40 37 39 39 30 24 24 26 23 17 22 20 25 31 33 29 36 38 22 11 20 18 20 24 28
37 38 39 41 45 47 51 52 53 54 58 43 29 31 36 41 50 45 48 34 37 41 38 40 30 27 27 26 15 17 13 16 24 22 23 24 30 23 14 8 18 9 18 27 32
37 39 42 42 47 49 52 52 51 47 43 22 4 4 11 29 31 46 42 41 37 38 31 35 26 23 19 20 19 23 27 22 28 22 25 26 27 22 15 13 17 28 22 22 28
36 40 43 45 48 51 52 51 45 31 17 6 10 4 11 14 25 34 41 44 41 38 32 30 26 22 21 21 18 23 30 25 31 28 32 19 21 12 19 18 19 31 27 24 33
39 42 43 48 46 49 50 45 30 13 7 7 19 12 5 13 7 27 35 39 29 43 41 33 31 29 25 24 21 25 25 30 31 30 24 3 8 4 7 15 23 26 34 38 40
40 42 44 47 47 48 46 34 14 8 7 17 17 9 13 13 13 14 20 27 34 34 25 34 37 32 31 29 26 21 27 35 30 22 12 4 17 12 15 17 24 28 32 34 27
42 41 43 45 45 43 39 20 9 10 14 23 27 13 15 9 26 13 21 30 24 38 41 30 27 24 22 31 31 28 34 24 23 18 20 18 12 15 16 22 33 21 24 24 27
41 41 42 39 41 38 28 14 10 10 15 25 26 23 19 12 17 22 21 28 24 27 38 43 40 29 28 30 28 29 23 27 26 27 27 22 14 19 18 27 29 25 22 26 23
39 39 40 36 36 32 20 15 13 16 21 27 29 25 21 19 17 19 17 22 31 34 34 45 40 32 32 34 30 31 33 26 26 23 17 13 12 22 21 27 30 29 24 27 19
37 35 36 34 31 25 19 15 14 18 29 32 27 28 25 25 23 21 14 24 33 30 34 34 36 38 27 34 27 27 35 32 24 31 32 28 23 23 15 23 29 35 34 29 17
33 33 31 30 27 22 19 16 14 20 28 36 34 33 32 32 31 25 29 19 26 31 31 29 30 33 34 28 28 32 36 30 26 17 34 32 28 27 20 30 39 44 34 34 15
30 32 27 28 26 22 19 14 14 16 21 26 29 31 27 35 40 30 30 19 17 26 15 22 31 34 37 31 27 29 31 27 31 26 25 30 34 35 37 32 40 40 21 18 23
28 26 25 25 20 16 16 14 16 13 18 21 26 25 28 33 39 41 24 29 6 5 20 17 35 35 34 38 26 27 27 32 30 31 29 31 27 33 38 41 40 33 32 18 15
22 24 24 23 17 16 18 17 16 19 20 17 18 14 27 32 35 42 39 27 7 5 11 35 35 36 35 33 29 23 22 29 40 32 37 37 36 40 42 41 49 35 23 19 20
22 23 25 22 19 19 15 13 11 15 17 18 22 18 15 26 37 37 42 43 34 23 11 34 40 35 34 33 32 25 25 23 27 42 41 40 36 44 43 41 42 38 33 32 23

GFSSW_500_spd_087.txt.gz
Wind_Speed
13 14 15 15 15 15 15 15 16 16 16 15 14 14 14 13 13 10 11 13 17 17 17 18 18 14 13 13 13 8 9 10 6 6 13 18 21 21 25 22 18 22 23 22 22
20 20 21 21 21 21 21 21 21 20 20 20 20 20 18 18 17 16 15 14 14 17 19 20 21 19 16 19 16 13 12 12 12 6 3 11 15 17 24 18 21 20 21 20 20
23 24 25 25 26 27 28 28 28 27 27 27 25 24 23 23 22 20 21 19 17 17 18 21 24 24 21 22 21 17 15 10 11 9 5 4 6 11 16 19 21 20 16 17 16
19 20 21 22 23 23 24 25 26 28 29 29 31 32 30 28 25 27 26 25 24 20 20 22 25 24 25 27 31 21 21 13 6 6 7 4 1 5 12 22 21 12 16 15 13
13 10 9 11 13 16 19 21 23 23 24 25 27 30 32 32 28 31 28 26 27 27 23 24 24 24 30 33 35 25 25 20 15 10 8 3 4 4 6 17 14 9 10 12 16
8 9 11 12 12 13 13 14 16 16 18 19 21 21 22 22 30 35 32 29 30 29 31 27 25 29 32 37 40 33 30 25 20 16 14 13 12 6 6 11 11 14 7 12 13
7 8 10 12 13 15 17 17 17 16 18 18 18 20 23 18 26 27 29 29 31 31 29 31 33 33 34 35 42 38 32 25 22 22 23 20 19 14 14 10 10 9 19 7 12
12 12 14 16 17 19 21 21 20 20 20 22 23 25 23 25 28 27 29 32 29 36 35 35 36 37 37 35 39 36 32 24 13 17 23 27 14 11 17 9 14 7 8 12 7
16 18 20 20 20 20 22 23 25 25 24 26 26 26 25 27 27 32 37 36 38 38 40 44 45 39 40 40 37 36 30 22 19 22 24 27 18 19 14 17 13 12 4 7 10
22 23 25 23 22 24 26 27 28 25 26 31 32 32 32 34 33 34 37 40 40 44 46 48 47 47 44 43 36 30 33 27 27 28 29 27 27 24 16 14 15 17 10 7 10
25 27 27 26 26 26 26 24 25 25 30 33 34 35 34 38 39 38 42 45 48 49 52 51 49 49 42 36 35 31 36 29 35 33 36 31 29 22 16 19 17 17 16 14 12
27 27 27 26 26 26 25 26 27 27 29 38 40 40 42 45 42 39 44 47 53 54 50 54 55 44 35 35 34 34 33 32 37 39 41 33 32 29 20 23 19 18 17 19 18
26 26 27 28 26 26 28 31 32 34 38 40 44 45 42 37 42 43 44 47 54 57 53 55 51 41 37 34 33 31 34 31 35 45 41 40 39 30 22 25 27 26 22 24 20
27 30 30 29 26 29 30 32 34 35 39 46 48 42 42 45 45 39 40 43 54 57 49 47 46 45 38 35 30 32 29 29 37 48 46 39 45 36 34 31 32 32 33 28 25
31 30 28 27 29 30 30 33 37 39 45 45 40 42 43 45 46 29 36 36 43 51 43 44 40 45 40 34 23 24 26 28 29 43 47 50 49 44 37 36 29 31 33 31 27
33 30 30 29 30 30 34 36 39 39 43 41 41 43 40 36 29 26 28 27 32 37 36 34 34 42 39 34 27 23 32 30 28 27 43 52 51 50 41 31 35 37 38 29 30
31 31 31 30 33 34 35 37 38 39 40 39 37 35 33 29 16 24 27 26 34 36 33 30 34 38 38 36 31 29 32 31 28 26 31 28 36 34 19 28 33 34 31 32 29
32 34 34 33 33 34 35 37 39 40 38 37 32 26 28 25 16 14 17 21 29 35 31 31 30 30 38 40 32 33 34 29 28 26 25 25 30 27 24 30 31 33 37 36 31
35 35 35 33 35 35 36 36 37 38 38 34 27 20 28 29 23 21 11 21 28 32 33 34 32 31 32 32 28 35 34 29 26 24 21 20 28 24 25 25 26 33 30 30 26
38 38 35 34 33 33 35 36 36 37 37 33 24 24 29 26 27 24 19 16 23 33 42 37 37 33 28 32 32 32 30 28 24 29 24 23 27 27 24 22 22 25 21 22 16
38 39 36 33 32 34 34 35 34 35 35 31 23 24 27 33 27 27 21 16 21 26 27 34 38 39 34 35 39 30 34 29 33 31 22 26 22 26 26 21 23 24 20 18 13
40 37 34 32 34 35 34 34 35 32 33 30 23 25 27 28 34 32 24 25 24 22 21 28 27 30 24 30 33 30 35 32 36 27 28 27 21 13 29 24 12 14 9 14 19
36 34 33 34 35 34 32 32 32 31 30 26 25 25 28 27 32 35 32 24 23 29 26 28 28 28 28 22 37 33 37 25 33 32 33 27 21 15 22 20 25 28 25 28 30
33 33 33 35 34 31 29 32 29 27 25 25 25 26 25 29 34 33 34 28 26 25 32 26 28 38 29 18 33 34 31 31 34 24 31 27 24 22 23 29 22 23 26 32 37
32 33 35 33 32 29 31 29 26 26 22 25 25 24 21 25 29 35 37 30 29 28 31 29 28 29 27 27 20 36 35 28 28 27 31 28 30 29 29 30 26 25 27 30 28
32 33 34 31 31 29 30 27 25 23 20 22 21 24 22 20 23 27 31 37 31 34 35 30 29 34 32 24 19 17 18 25 29 32 31 35 32 36 36 35 33 31 29 25 23
33 33 32 30 30 28 29 26 24 18 20 20 18 21 22 19 20 23 27 29 34 35 34 35 34 44 31 25 20 20 17 27 29 38 38 36 37 37 32 31 28 32 41 36 33

GFSSW_500_spd_090.txt.gz
Wind_Speed
12 13 14 15 16 17 17 17 16 16 16 15 14 15 16 15 14 13 14 14 14 14 16 16 15 16 16 13 14 11 11 9 5 3 9 13 17 15 22 22 21 16 18 20 22
19 19 19 20 21 22 23 23 23 23 23 22 21 20 18 17 18 18 17 16 17 17 17 19 16 19 21 20 19 18 13 7 4 6 2 12 12 15 14 17 18 18 13 15 18
19 18 18 18 19 20 21 22 24 24 26 26 27 26 25 24 22 19 22 19 19 19 21 22 20 20 21 24 25 24 19 13 10 5 7 6 8 9 11 11 15 16 16 11 12
17 18 19 19 19 20 21 23 23 23 24 25 25 26 24 24 26 28 26 25 23 23 23 25 26 20 25 27 31 26 25 20 13 11 15 4 4 5 5 6 14 9 10 11 9
12 8 6 7 9 9 10 10 10 11 11 11 12 13 15 16 20 24 24 28 26 26 25 25 24 28 24 29 33 31 29 27 21 18 14 11 2 3 4 5 6 6 7 10 10
6 7 7 7 9 11 12 12 11 12 12 13 14 14 13 11 20 23 22 22 25 29 29 29 27 31 29 31 34 32 30 29 26 20 18 21 8 5 8 0 3 11 3 4 8
7 7 9 10 13 15 16 16 17 17 17 16 16 17 16 15 23 23 25 27 26 25 33 35 35 36 32 31 34 36 36 28 27 25 23 24 20 16 17 7 3 4 12 11 6
11 12 13 14 16 18 17 16 17 19 22 24 21 21 20 24 25 27 29 31 33 30 30 37 41 42 39 35 35 38 38 29 23 30 27 26 23 21 23 14 9 5 7 3 5
15 17 18 20 21 21 20 21 23 24 24 24 24 24 25 28 31 31 31 33 36 37 36 39 40 43 44 42 40 40 38 33 24 29 32 31 29 25 33 21 17 14 9 4 4
21 22 23 23 25 22 23 24 24 23 22 23 24 27 30 31 32 33 36 38 39 42 43 43 45 44 47 47 44 36 34 35 31 32 31 35 36 28 31 29 23 17 12 10 5
23 25 26 24 23 22 24 24 22 23 25 29 30 30 36 35 35 38 41 40 39 42 48 48 50 53 49 43 40 39 39 38 36 34 37 35 39 34 34 31 33 20 15 10 6
26 27 26 26 25 26 26 24 24 28 32 32 34 36 37 39 41 39 36 36 36 39 44 51 56 55 51 44 43 41 40 40 35 35 40 41 44 38 36 35 31 17 18 11 11
28 29 29 28 29 30 29 26 28 30 32 34 35 37 39 37 37 41 41 41 39 39 42 49 56 54 50 45 43 41 39 35 34 34 37 48 49 46 42 41 39 27 22 19 17
31 31 31 32 32 30 29 29 31 31 33 36 40 42 39 40 42 39 41 44 41 38 38 46 55 54 50 48 43 41 29 31 30 36 37 48 55 51 45 42 36 34 27 25 22
32 33 32 34 34 32 32 33 31 34 36 38 37 40 44 44 43 39 42 43 34 26 31 40 44 45 46 43 39 35 25 29 32 36 40 43 55 51 46 44 39 36 33 27 26
36 34 34 32 32 32 34 34 35 35 38 37 38 42 43 44 42 41 43 34 23 23 27 28 35 37 37 38 41 34 31 27 33 36 37 46 51 56 47 46 40 34 37 33 31
34 32 32 32 32 34 36 34 35 36 37 37 38 40 42 40 36 33 37 32 21 26 27 21 24 24 31 33 43 39 31 28 34 34 35 37 49 53 45 46 44 41 42 39 40
34 32 33 33 33 35 33 33 35 36 36 36 37 38 37 35 31 26 26 29 27 26 24 18 18 21 26 31 39 43 35 31 34 36 35 28 44 50 41 45 39 44 45 43 40
34 33 34 34 34 35 33 35 35 36 36 36 37 34 33 31 26 25 25 25 26 20 20 21 21 25 23 26 32 33 38 34 30 36 34 36 38 46 51 43 39 41 40 37 33
36 36 34 35 36 35 35 35 36 36 36 34 33 33 28 23 27 27 26 24 22 23 22 26 24 24 27 28 31 28 32 39 27 31 36 32 37 36 27 27 31 32 32 28 28
38 37 37 37 36 35 34 34 35 36 33 32 33 30 30 20 23 30 30 29 23 23 26 25 28 28 29 27 29 29 30 32 35 31 27 35 38 32 12 13 23 23 18 18 19
39 38 37 36 35 33 33 34 35 34 31 31 32 30 29 24 18 28 31 31 29 23 25 22 24 29 21 22 27 33 36 31 32 32 32 25 30 22 13 6 18 21 18 24 27
33 33 34 34 33 33 33 35 33 31 30 32 32 29 26 25 21 22 29 28 30 28 28 28 33 26 24 17 18 21 27 32 36 21 36 30 32 20 19 14 13 20 20 15 16
35 33 32 33 31 31 33 33 31 29 30 31 32 28 23 21 22 22 24 27 26 27 32 33 30 30 29 23 24 18 23 33 41 33 25 34 31 23 23 20 20 19 20 27 26
34 32 31 31 31 31 33 33 30 31 32 29 29 25 21 19 18 22 23 23 27 33 31 35 30 29 21 25 25 24 25 25 34 33 37 26 33 26 28 28 29 22 23 21 27
34 32 32 31 32 33 33 32 29 30 29 29 26 22 23 22 17 16 20 20 22 32 33 36 39 34 21 25 29 25 28 32 24 28 27 38 28 30 33 33 31 28 25 30 26
34 33 34 34 35 34 33 31 29 27 28 25 27 24 22 22 21 20 20 19 20 23 27 35 39 37 34 32 34 32 37 12 28 24 25 26 31 34 33 30 31 30 28 29 30

GFSSW_500_spd_093.txt.gz
Wind_Speed
12 13 14 14 15 15 16 16 16 16 16 15 15 14 13 13 14 14 16 16 13 16 15 14 12 15 15 14 15 15 12 9 11 5 2 6 12 16 20 21 19 19 14 15 17
16 16 16 17 17 17 17 18 19 20 20 20 20 19 18 17 16 15 17 18 17 16 17 16 14 15 18 16 17 18 18 15 13 8 7 3 8 9 13 18 16 16 15 11 13
15 15 15 16 17 18 19 20 21 21 22 22 22 21 21 20 21 17 20 19 19 20 19 19 18 17 18 20 19 23 23 21 18 11 6 13 7 6 6 8 14 10 10 11 10
15 16 17 16 15 12 9 7 7 8 8 10 12 13 12 11 17 19 17 22 23 24 25 24 23 21 19 23 24 23 25 24 23 17 17 12 8 6 2 8 4 7 5 8 6
14 9 4 4 5 5 6 7 8 10 11 10 10 11 11 12 17 15 16 16 19 23 26 27 27 28 25 25 29 26 23 27 23 23 22 20 10 5 5 5 3 7 9 5 5
5 6 5 5 7 9 10 10 10 12 11 11 12 13 11 14 18 19 18 20 20 22 23 26 28 32 34 28 30 28 28 28 28 26 28 24 15 10 8 6 7 6 4 9 4
6 5 7 8 11 13 14 14 13 15 15 16 18 18 15 21 19 21 21 23 25 26 25 28 31 31 31 33 32 34 34 31 30 29 29 27 20 12 15 14 9 9 11 8 6
10 11 11 12 16 18 18 17 16 17 19 20 19 19 19 22 23 25 27 28 28 30 30 30 33 35 35 34 36 35 38 37 26 32 34 32 25 17 21 20 17 18 11 7 6
13 15 16 18 19 21 22 21 20 20 21 19 18 18 18 21 23 24 26 29 31 31 34 37 39 41 41 40 38 38 38 35 28 32 35 40 36 24 26 27 21 20 14 13 9
20 21 20 20 21 23 22 21 22 22 20 19 20 23 22 23 27 29 31 33 35 37 38 39 40 42 44 44 44 37 38 38 35 31 37 42 45 37 30 32 26 22 22 18 11
22 22 20 22 22 23 23 23 24 24 21 22 24 25 26 28 29 31 35 33 33 33 32 34 39 39 42 45 45 45 43 42 41 32 39 41 46 42 34 33 30 28 21 24 15
24 25 24 25 24 25 26 26 27 26 24 25 27 27 27 30 35 35 34 37 37 35 34 35 37 38 42 48 52 51 48 45 41 35 38 39 47 48 37 35 35 33 29 25 24
29 29 28 28 27 27 28 28 27 27 27 29 30 31 31 33 33 35 38 39 40 37 36 38 37 41 45 50 55 55 51 42 36 35 37 37 46 44 39 40 38 37 31 28 26
28 30 29 29 29 29 30 30 29 29 31 32 34 34 33 31 34 37 37 39 38 36 37 40 36 40 44 47 54 56 46 38 36 35 37 37 45 47 43 42 43 38 35 32 25
30 32 32 33 33 33 31 31 30 29 33 36 34 34 33 33 36 37 38 40 35 34 35 30 33 35 38 36 39 48 40 39 37 36 37 34 44 44 45 46 43 44 39 34 34
31 32 33 32 31 31 30 30 30 31 34 35 34 34 35 36 36 38 39 38 34 30 28 22 23 25 23 19 26 32 35 41 41 34 35 34 38 44 47 42 46 45 44 39 37
34 33 32 30 31 31 34 33 33 31 33 33 33 33 34 35 37 38 36 33 33 27 21 15 20 18 11 15 20 29 33 40 40 37 29 31 36 37 41 38 38 48 47 46 42
36 36 33 33 33 33 35 35 34 33 32 31 31 34 34 35 36 35 35 32 30 27 18 15 22 10 6 14 20 21 29 32 36 31 24 23 35 35 27 29 26 44 49 50 47
34 35 36 35 35 35 35 35 35 33 31 31 33 33 33 33 32 31 31 28 23 23 18 19 19 8 12 15 16 17 26 24 25 34 25 25 34 33 23 30 28 36 46 48 44
33 31 31 31 32 34 34 35 36 33 31 30 32 32 30 29 28 28 28 27 24 19 19 21 19 10 16 23 24 28 27 22 26 25 27 35 39 38 32 31 40 31 38 44 43
35 34 33 34 34 34 35 35 34 31 29 31 33 31 30 26 25 24 25 26 23 24 23 23 19 17 13 20 27 28 27 29 27 36 24 27 27 37 33 30 22 27 29 31 34
32 31 30 31 32 32 33 32 31 31 30 31 31 31 30 29 22 22 23 24 28 28 25 28 27 23 20 19 18 23 29 31 28 29 24 24 28 33 36 32 24 23 19 19 16
33 32 32 33 32 33 32 31 30 31 32 32 32 30 30 29 26 21 22 25 29 30 31 29 29 27 22 20 20 16 21 23 28 32 33 28 21 19 27 24 25 25 23 21 23
34 32 32 33 32 31 31 28 28 30 33 31 33 33 32 30 27 27 22 22 28 34 33 31 29 27 26 22 17 17 25 26 32 26 31 35 23 29 24 23 22 23 26 25 24
36 35 33 33 31 31 31 30 29 32 32 31 32 33 31 30 27 27 28 24 21 27 34 35 33 31 23 21 23 20 20 22 20 21 33 24 20 23 26 18 24 25 22 27 32
36 35 35 33 33 33 32 31 31 31 32 31 31 31 29 29 27 26 29 27 16 20 27 32 34 35 28 25 25 25 25 25 27 32 27 27 16 24 18 25 27 28 26 26 32
35 35 34 33 33 33 34 34 32 31 29 30 29 29 29 26 25 25 24 19 21 18 22 27 32 32 30 25 27 32 30 27 26 27 23 22 17 19 27 27 24 28 31 28 28

GFSSW_500_spd_099.txt.gz
Wind_Speed
7 8 9 9 10 11 12 12 13 13 14 14 14 15 16 16 16 15 15 13 12 13 12 11 11 11 10 10 8 4 4 17 17 4 3 8 5 8 7 9 7 8 7 9 13
9 10 11 11 11 12 13 14 15 15 14 13 13 13 13 14 15 15 16 15 15 15 15 14 12 12 14 13 11 10 10 15 8 9 7 9 7 7 6 11 9 8 7 7 8
10 11 12 12 12 12 10 9 6 4 5 6 7 7 7 7 8 8 10 9 9 10 11 14 15 16 15 16 15 15 15 13 15 19 19 12 7 9 7 7 10 11 9 7 7
12 12 12 10 3 1 1 3 5 7 7 8 8 8 9 10 10 6 8 9 10 10 11 13 14 14 16 18 18 22 19 20 17 18 19 17 16 10 10 9 9 12 10 7 3
12 9 5 2 0 2 4 6 8 9 9 10 9 10 12 13 11 10 8 9 9 11 13 14 14 16 18 18 18 24 20 22 26 24 24 24 17 15 12 11 12 6 12 7 7
6 4 4 4 2 3 5 8 10 10 10 9 11 12 14 14 14 11 8 10 12 13 14 16 17 17 19 21 22 22 22 22 26 27 25 23 20 21 13 16 21 12 10 9 8
5 4 4 5 6 8 10 12 13 13 13 13 14 15 14 12 12 11 11 13 13 16 18 20 22 22 23 24 26 27 27 25 23 25 25 25 26 25 18 18 24 24 13 10 7
5 5 7 8 11 14 15 14 15 15 15 15 15 17 15 14 14 14 14 16 18 19 21 24 25 26 27 28 29 30 30 28 21 21 22 26 29 24 16 19 23 28 21 16 14
7 9 11 14 16 17 17 17 16 15 13 14 16 17 15 16 17 17 19 20 19 22 24 23 26 28 28 29 31 30 30 27 24 18 19 26 28 25 22 22 28 31 28 24 21
12 12 15 18 16 16 16 17 17 17 17 17 18 20 18 18 19 19 20 23 24 24 24 27 31 31 29 28 30 31 27 25 26 22 23 27 27 26 29 32 33 30 29 31 29
16 18 21 19 18 19 19 20 20 19 20 20 20 21 20 21 21 22 24 26 27 27 28 30 32 30 31 32 33 33 33 33 31 29 28 28 33 31 29 32 34 38 39 34 31
21 20 19 19 20 21 22 21 21 21 21 21 21 21 21 22 23 25 26 27 28 28 30 32 32 32 35 34 34 35 36 37 36 36 35 36 37 34 32 31 36 43 41 39 30
22 21 20 20 21 22 23 23 23 24 24 22 22 23 23 24 26 27 28 30 31 31 32 33 31 35 37 37 35 35 35 35 38 34 34 35 38 34 35 35 36 39 38 40 35
24 23 23 22 24 23 24 25 26 25 27 24 22 23 25 26 27 29 30 30 31 32 33 33 34 35 35 35 37 36 34 35 37 33 36 30 40 34 32 26 26 29 28 35 36
26 26 26 27 26 26 26 26 26 25 27 28 26 28 30 30 32 30 31 32 32 33 33 30 34 35 34 32 31 32 33 34 35 35 30 33 34 34 27 23 26 26 23 23 24
30 30 30 29 29 28 28 27 26 27 30 31 31 31 32 31 32 32 32 32 32 32 33 34 32 34 32 31 31 33 32 31 26 20 29 30 37 40 28 30 20 21 20 18 22
30 31 32 31 30 30 30 31 30 29 29 33 33 33 34 35 34 32 32 35 33 32 25 27 16 23 31 29 28 27 14 18 20 22 27 22 21 26 27 21 19 13 15 16 23
23 22 23 24 23 23 23 24 25 30 30 31 32 32 31 33 34 34 33 32 38 32 27 17 11 19 22 24 19 13 12 17 20 21 29 34 31 25 27 29 15 18 32 25 33
27 28 28 28 28 28 27 28 31 27 28 28 29 28 33 34 29 34 33 32 36 33 29 27 17 26 18 16 15 12 17 16 19 18 19 28 19 23 17 6 12 12 26 35 43
32 31 30 31 30 30 30 30 32 29 31 30 30 31 31 35 29 33 30 35 36 32 31 28 26 20 15 15 16 15 14 16 17 24 13 19 28 6 20 21 21 39 13 33 33
35 35 29 33 32 32 31 33 31 30 30 30 30 31 31 32 31 29 29 31 38 31 30 28 28 18 17 14 20 14 12 14 16 17 22 24 14 4 29 10 17 31 14 26 28
39 39 33 36 36 36 36 34 34 35 33 33 32 32 31 32 30 29 29 31 36 33 30 26 27 23 19 21 21 18 20 20 16 18 21 28 18 18 16 17 16 36 22 23 24
43 43 41 40 38 39 40 36 37 36 35 34 33 32 32 30 31 30 30 32 34 31 30 26 24 23 15 12 27 37 30 16 16 12 21 28 23 20 27 26 23 20 27 31 24
41 41 41 39 40 38 40 38 38 36 36 35 34 34 32 31 31 30 28 30 32 30 30 25 23 24 21 21 21 20 12 17 12 17 22 23 26 28 33 33 19 15 28 31 28
39 40 39 40 38 37 38 39 38 39 36 36 36 35 35 33 32 30 31 30 27 30 29 27 26 25 22 24 24 29 28 24 26 23 28 25 30 36 29 9 25 20 24 27 25
38 36 35 37 36 37 38 38 38 37 39 36 38 36 38 35 34 31 30 29 28 28 29 25 26 25 23 19 20 25 26 22 30 25 31 32 27 36 15 16 20 23 28 29 33
37 37 36 35 34 36 37 38 37 38 39 37 39 36 36 39 32 30 28 28 28 27 27 25 24 24 22 17 17 21 21 26 28 35 30 40 30 25 20 19 24 23 25 22 30

GFSSW_500_spd_102.txt.gz
Wind_Speed
5 6 7 8 9 11 12 12 13 13 14 15 15 15 15 14 14 14 13 12 13 13 12 12 10 10 7 9 7 9 5 20 20 6 18 8 3 7 21 22 19 15 9 11 12
8 9 9 11 12 13 13 13 12 10 8 7 6 6 7 8 8 8 9 7 7 8 8 10 9 11 11 9 10 12 11 21 23 20 14 9 12 9 8 20 29 16 13 12 13
10 12 12 12 13 13 11 6 3 4 5 5 6 6 8 8 7 6 6 7 7 7 8 8 8 9 10 10 7 10 17 13 30 31 21 12 14 14 5 7 27 20 9 15 8
11 12 13 12 8 5 2 2 3 6 7 8 8 8 8 9 7 8 7 7 7 6 8 10 10 11 11 12 11 10 11 16 16 22 17 14 14 15 15 10 18 26 15 11 9
14 13 9 4 3 1 2 4 6 7 6 7 7 8 10 9 7 6 7 6 7 9 9 10 12 14 15 15 16 16 13 14 18 19 19 19 18 17 17 11 11 24 20 20 12
11 7 4 3 2 4 6 8 10 11 10 11 10 10 11 10 9 10 6 7 9 9 10 13 15 17 17 19 19 20 21 20 21 21 18 17 19 19 17 11 16 23 29 25 17
7 6 4 4 6 7 9 12 13 13 14 14 13 12 13 13 11 9 9 12 10 12 14 15 16 19 18 19 23 24 25 24 24 20 19 18 16 19 19 15 14 29 30 30 24
7 6 5 5 8 12 14 14 15 15 15 14 14 14 15 16 13 13 13 14 16 15 16 19 18 17 21 22 21 23 26 27 22 21 15 17 26 18 18 19 12 25 27 26 26
9 8 8 9 13 15 15 15 15 15 14 14 15 17 17 18 17 17 16 17 17 19 20 22 23 23 24 25 26 22 26 26 25 18 17 19 23 20 19 23 20 18 21 26 37
11 12 12 14 17 16 16 16 16 17 18 18 19 20 20 20 20 20 20 20 20 21 23 25 26 25 27 28 28 28 27 24 24 20 18 24 24 22 26 25 26 24 25 28 25
14 15 17 19 20 18 19 19 18 19 19 19 19 20 20 22 22 22 22 23 24 25 25 27 27 27 29 29 30 32 34 34 26 24 29 31 29 26 28 24 26 30 33 36 28
17 19 20 21 21 19 19 19 19 19 19 19 20 21 22 22 23 22 24 26 25 26 28 29 29 32 32 31 32 31 32 33 32 29 30 30 40 36 30 33 33 33 35 38 42
20 22 23 23 22 21 20 21 22 23 23 21 23 23 22 22 22 24 24 25 27 28 29 28 28 29 28 29 31 31 35 33 34 33 33 31 39 34 32 34 37 37 36 38 38
25 25 25 24 24 23 24 25 26 27 29 25 22 22 22 23 25 25 25 26 28 28 29 28 29 31 29 30 30 32 27 32 32 33 36 23 38 34 30 28 28 30 24 22 27
27 27 26 26 26 27 27 27 27 27 27 31 24 23 24 26 30 29 26 28 28 28 30 28 29 30 30 30 29 29 27 29 31 31 32 33 29 27 27 32 41 41 32 27 26
28 28 28 29 29 29 29 29 27 25 29 30 30 26 28 31 31 28 29 25 28 27 28 31 29 31 34 33 30 29 27 28 22 26 25 27 36 37 37 36 50 35 41 14 21
23 22 21 21 21 22 22 21 21 21 25 31 26 27 28 27 34 34 26 30 33 33 29 25 19 13 28 34 30 26 20 20 20 20 24 26 29 35 33 32 43 28 27 23 17
25 25 24 24 23 21 20 20 22 22 26 23 24 25 26 27 28 28 31 30 32 39 29 25 5 16 21 31 27 21 15 16 20 24 27 21 26 22 30 28 36 29 27 19 27
30 28 28 28 26 24 23 23 27 27 28 27 27 30 27 32 29 28 30 27 25 36 30 24 24 23 31 20 22 18 20 19 24 21 24 25 30 17 20 18 20 33 18 18 29
33 33 29 30 29 28 27 26 30 29 27 27 26 27 25 21 33 27 28 28 34 37 32 28 29 24 22 18 18 19 18 18 20 24 24 25 24 27 26 12 20 31 33 36 42
35 35 33 31 33 32 30 30 34 33 28 30 30 29 29 30 32 29 26 23 39 39 33 28 31 28 23 16 14 21 20 26 32 28 24 19 20 32 29 25 30 34 30 44 45
36 37 35 35 36 35 35 36 35 33 37 31 33 32 33 32 33 29 27 25 39 38 34 31 31 31 26 21 19 22 25 32 34 28 27 31 25 33 30 28 26 32 42 18 41
36 36 41 34 36 36 37 39 39 35 37 37 36 34 34 34 33 32 31 31 36 37 39 33 31 32 27 13 22 31 34 33 34 37 31 33 13 34 41 43 29 30 41 29 7
39 37 39 36 36 38 37 38 41 39 35 36 37 36 37 36 34 34 33 32 34 38 39 34 32 31 28 25 33 33 23 25 21 19 25 25 25 37 40 32 41 41 35 34 18
39 39 38 38 37 35 35 38 39 38 42 38 37 36 37 38 38 37 34 34 34 39 36 35 35 31 29 29 29 30 33 29 25 33 34 28 34 46 38 41 35 31 42 22 22
40 39 39 36 37 37 35 35 37 37 38 40 41 35 37 40 40 38 35 36 35 35 35 34 34 33 29 28 27 28 25 27 34 30 35 34 44 29 28 19 22 38 20 16 21
41 39 38 37 37 37 36 37 37 38 38 38 41 38 40 39 45 37 33 35 34 34 33 34 33 33 29 27 28 30 21 20 30 35 42 38 42 45 44 24 22 23 17 21 21

GFSSW_500_spd_105.txt.gz
Wind_Speed
3 5 6 8 10 12 13 13 13 13 14 14 13 11 9 9 7 6 5 4 5 5 5 5 6 9 10 12 12 8 10 17 29 9 9 16 16 14 25 27 25 25 17 11 15
6 7 8 10 12 13 13 13 12 8 4 6 6 7 8 8 6 7 7 6 6 6 5 6 6 7 8 9 11 13 8 9 20 22 21 7 16 6 10 19 19 26 11 25 10
9 9 10 12 13 13 11 5 2 3 4 5 6 7 7 7 6 6 6 5 5 5 5 6 6 8 9 10 10 11 8 13 22 15 17 8 4 6 5 17 19 20 27 16 13
9 11 12 12 11 6 1 2 2 4 5 4 5 6 6 7 5 6 6 6 5 5 6 6 7 7 9 11 14 15 13 1 15 21 18 12 12 7 14 11 18 22 21 23 25
12 12 10 8 5 1 1 3 5 7 6 5 6 6 8 8 8 6 9 8 7 8 8 8 9 10 11 13 14 16 17 16 11 19 23 18 15 18 20 15 7 23 23 21 24
14 12 7 4 2 3 4 6 9 10 10 10 10 9 9 9 10 10 9 8 9 9 10 12 12 12 11 12 14 16 17 17 18 17 17 17 13 14 15 12 13 27 22 26 24
12 9 5 3 3 5 7 9 10 11 12 11 11 11 11 12 11 11 11 12 10 12 13 13 14 16 16 16 17 19 16 16 18 20 17 16 13 11 13 13 15 21 28 36 20
11 8 6 5 5 8 11 12 13 13 13 12 12 11 12 15 15 14 13 13 14 13 15 17 18 19 20 21 21 23 22 18 17 18 12 15 12 6 11 21 8 25 34 35 19
11 9 8 7 7 10 13 13 13 13 14 14 14 15 15 17 16 16 16 16 16 17 16 18 21 22 22 23 22 22 24 24 18 19 18 10 16 11 6 14 12 25 34 40 41
13 12 11 11 12 14 15 15 16 15 16 17 17 17 18 17 17 17 17 18 19 19 19 21 22 23 23 25 25 24 26 26 25 19 20 20 23 23 17 18 25 28 29 40 29
15 15 14 14 15 16 17 16 17 18 18 18 19 19 19 20 20 20 20 19 20 22 22 23 22 24 24 25 26 26 29 30 27 25 28 22 26 27 24 27 23 19 32 28 27
16 17 17 18 19 20 21 20 20 19 19 19 20 21 23 23 21 18 20 20 21 23 24 25 24 26 24 24 28 28 31 30 30 27 29 28 27 22 34 35 34 29 35 35 34
17 19 20 21 22 23 23 23 23 23 22 21 24 24 21 23 22 18 20 22 23 22 23 24 23 27 27 25 27 26 29 29 31 28 27 30 34 31 22 40 45 41 39 42 42
20 21 22 23 25 26 26 26 26 28 29 24 22 22 21 21 19 23 22 23 25 23 24 23 24 26 28 25 26 27 25 28 29 29 28 23 34 24 23 29 26 38 53 53 44
23 24 25 26 27 28 28 28 29 31 32 26 18 19 18 22 25 20 22 27 25 23 24 23 22 24 25 27 27 21 26 26 25 24 24 16 30 31 29 28 25 35 38 40 37
24 25 25 25 26 26 26 25 25 23 25 24 21 16 17 21 24 24 19 15 22 22 20 22 22 25 28 30 30 27 29 27 26 25 26 22 19 31 26 34 40 33 45 42 46
21 21 21 21 20 21 19 19 16 18 19 24 17 18 19 20 26 27 24 24 28 33 25 22 21 25 15 26 31 31 30 31 28 20 20 17 29 31 33 38 31 30 24 49 49
23 23 23 23 23 22 22 21 21 22 24 21 20 24 24 24 24 23 26 26 27 34 31 22 21 22 26 26 28 30 28 24 27 24 27 17 24 31 37 31 28 31 24 33 46
29 28 28 28 26 26 26 25 26 25 25 23 21 24 23 26 27 24 24 25 25 33 34 25 20 19 26 27 26 26 23 20 25 25 29 28 28 35 31 33 29 38 30 31 37
31 31 28 29 30 29 27 26 27 30 27 22 25 24 25 24 29 33 25 25 26 35 38 31 29 24 23 27 21 21 22 28 27 30 34 35 32 34 31 26 22 31 25 25 29
30 32 29 28 31 31 29 27 31 32 33 25 29 29 29 26 31 31 28 25 32 39 40 36 30 27 28 25 26 25 28 29 29 32 37 38 38 34 35 39 37 27 20 22 30
31 32 29 28 28 31 29 30 32 32 36 31 30 31 31 32 33 32 27 28 36 40 38 37 34 35 29 23 23 27 32 35 33 35 37 37 43 43 41 37 29 31 24 22 33
34 33 37 31 30 31 32 31 32 35 32 32 36 35 35 34 33 32 31 29 35 38 39 40 35 36 32 23 21 32 30 34 39 38 36 37 33 29 34 34 34 35 28 32 31
34 35 37 36 33 33 34 32 33 35 37 34 35 36 35 35 36 35 34 32 31 36 40 42 37 33 34 29 28 33 35 33 36 38 33 31 30 33 37 35 33 31 40 44 36
37 38 37 37 37 35 33 33 33 34 35 40 39 37 38 38 38 39 41 39 34 38 40 41 39 34 34 30 31 30 30 33 40 42 34 39 37 38 40 41 36 41 34 33 43
41 39 37 33 36 37 35 35 34 35 36 38 40 42 40 37 40 45 45 35 34 33 35 37 39 37 34 30 32 31 31 33 31 32 28 41 39 43 43 43 39 31 25 31 32
43 41 39 37 37 37 37 37 37 38 40 40 41 41 41 44 44 44 40 31 32 35 34 36 37 36 33 32 33 29 29 31 31 32 34 37 40 42 47 46 35 27 25 27 27